Theta_e
313 316 318 319 321 323 324 324 325 331 334 330 322 320 319 318 316 317 316 318 313 306 304 302 301 300 299 296 294 294 293 294 293 294 295 297 297 298 297 294 294 293 295
314 314 317 320 324 324 325 324 323 329 328 327 323 321 314 312 310 307 306 305 303 302 302 300 299 297 295 294 293 292 292 292 293 294 294 293 294 296 297 294 292 294 291
314 314 315 321 324 325 326 324 322 324 324 325 321 314 310 305 302 302 301 300 301 300 299 298 297 295 294 293 292 291 291 291 291 292 291 289 291 291 292 293 293 292 291
314 315 316 318 322 325 326 324 322 322 322 321 320 318 309 302 300 300 299 299 299 298 297 296 294 293 292 291 291 290 290 290 290 290 290 290 291 289 289 291 290 290 288
314 315 317 318 322 323 325 323 321 320 319 320 321 317 308 304 300 299 298 298 297 296 295 293 292 291 291 290 290 290 290 289 289 288 288 288 288 289 288 288 287 287 287
314 315 314 316 316 319 322 320 319 317 318 319 317 316 308 302 299 297 297 296 295 294 293 292 291 290 290 290 289 289 289 288 288 287 287 287 287 287 287 286 286 286 286
314 314 313 311 310 313 316 316 317 314 315 314 312 308 305 302 300 298 297 295 294 293 291 290 290 289 289 289 289 289 288 288 287 287 286 287 286 286 286 285 285 285 286
314 315 314 311 309 309 312 313 313 311 310 309 307 305 304 301 299 298 296 295 294 292 290 290 289 289 289 289 289 288 288 287 287 286 286 286 286 286 285 285 285 285 285
315 315 311 308 307 306 308 310 309 307 307 306 304 301 300 298 297 296 295 294 292 290 290 289 289 289 289 288 288 288 287 287 287 286 286 286 286 285 285 285 285 285 285
315 312 309 306 304 304 306 307 307 305 303 302 300 299 298 297 296 295 293 292 290 289 289 289 289 288 288 288 287 287 287 286 286 286 286 286 286 285 285 284 284 284 285
313 310 307 305 302 302 302 302 302 301 299 298 297 297 296 295 294 293 292 291 289 289 288 288 288 288 288 287 287 286 286 286 286 286 286 286 285 285 285 284 284 284 284
311 309 305 302 301 299 299 298 298 298 297 297 296 295 294 293 293 292 290 289 289 288 288 288 288 287 287 286 286 286 286 286 286 286 286 286 285 285 285 284 284 284 284
310 307 304 302 300 298 297 297 297 296 295 295 294 293 293 293 292 290 289 288 288 288 288 287 287 287 286 286 285 286 286 286 286 286 286 285 285 285 284 284 284 284 285
311 308 305 302 299 297 296 295 295 295 294 294 293 293 292 292 290 289 288 288 287 287 287 287 286 286 285 284 285 286 287 286 286 286 285 285 285 284 285 285 285 286 285
310 308 305 301 298 296 295 295 294 294 294 293 293 292 291 290 289 288 288 287 287 287 287 286 285 285 284 284 286 287 286 286 285 285 285 284 284 285 285 285 285 285 285
311 308 305 301 297 296 294 293 293 293 294 293 292 291 290 289 288 288 287 287 286 287 286 285 285 284 284 284 286 287 286 286 285 284 284 284 284 284 284 284 284 285 285
310 308 305 301 298 296 294 293 293 293 293 293 291 290 289 288 287 287 287 286 286 286 285 285 284 284 283 284 285 286 286 285 284 284 284 284 283 284 284 284 284 285 285
310 307 304 301 297 295 294 294 293 293 292 291 290 289 288 287 287 286 286 286 286 285 285 284 283 283 283 284 285 285 285 284 284 284 284 283 284 284 284 284 285 283 282
308 305 303 299 296 294 294 294 292 292 291 290 289 288 288 287 286 286 286 286 285 285 284 283 283 283 283 283 284 285 284 284 284 284 284 284 284 283 284 285 283 282 281
304 301 298 296 294 293 294 292 291 291 290 289 288 288 287 286 286 286 286 285 284 284 283 283 283 283 283 282 284 284 284 284 284 285 284 283 283 284 285 283 282 280 280
297 296 295 293 291 292 292 290 290 290 289 288 288 286 286 285 285 286 285 284 283 283 283 283 283 283 282 282 283 284 284 284 285 283 283 283 283 284 282 282 281 281 283
293 292 290 289 290 291 293 289 289 288 288 287 286 286 285 285 285 285 284 283 283 282 282 283 283 282 282 282 282 283 284 284 283 284 283 282 283 282 281 280 281 282 281
291 290 289 288 290 292 293 289 287 287 287 286 285 285 285 285 285 284 283 283 282 282 282 282 282 282 282 282 282 283 283 283 284 283 283 282 281 280 279 279 280 280 278
290 289 289 287 287 290 290 289 287 287 286 285 285 285 285 285 284 283 283 282 282 282 282 282 282 282 281 281 282 283 283 283 282 282 281 279 278 278 278 278 278 278 278
289 289 288 286 286 288 287 286 286 286 285 284 284 285 284 284 283 283 282 282 282 282 283 282 282 281 281 282 283 283 283 283 282 281 279 277 277 277 277 277 277 278 278
288 287 286 286 285 286 285 285 285 285 285 284 284 284 284 283 282 282 282 281 281 282 282 282 282 281 281 282 282 282 282 281 280 279 277 277 277 277 277 277 277 277 277
Wind_Speed
7 10 13 13 12 13 16 17 20 27 32 32 31 31 30 25 21 18 16 13 11 10 8 7 7 8 10 11 12 12 13 12 21 11 21 9 5 9 8 24 15 20 16
6 7 12 13 14 16 16 18 22 29 33 34 31 32 33 25 22 20 17 15 13 10 9 8 9 9 9 10 12 13 12 11 17 10 4 4 7 4 13 21 19 13 25
11 8 9 17 16 18 18 22 26 30 31 34 32 32 27 27 24 20 19 16 12 10 8 8 8 9 9 10 10 12 13 11 10 9 7 4 3 7 4 13 10 21 15
9 9 7 11 20 19 20 24 27 30 32 33 36 36 31 24 20 21 19 16 11 10 8 8 7 7 8 8 9 10 11 10 9 8 7 5 9 3 5 4 22 11 28
13 12 13 17 24 24 25 27 29 31 32 33 34 31 30 27 26 22 19 15 12 9 8 7 6 7 7 7 8 9 10 10 9 9 8 9 13 10 4 9 9 26 25
13 9 11 18 22 24 28 29 32 31 30 29 28 29 31 32 28 22 18 14 11 8 7 6 6 6 6 7 8 9 9 10 11 11 10 11 4 6 6 6 12 15 23
13 15 15 12 20 27 30 31 32 28 26 26 26 29 30 29 26 21 17 14 10 7 6 5 5 5 6 7 9 10 11 11 12 12 14 9 10 15 19 16 16 8 24
14 17 18 16 20 26 31 30 32 30 28 27 27 26 26 24 21 17 14 11 9 6 5 4 4 5 6 8 10 11 13 13 13 15 11 11 15 18 19 17 17 12 7
15 17 16 17 21 25 29 33 33 31 30 29 28 26 24 22 20 16 13 10 8 6 4 3 4 6 8 10 12 13 14 15 15 16 12 17 18 19 21 20 19 12 10
15 14 13 18 20 26 30 30 32 33 31 30 28 26 23 19 17 14 12 9 7 4 3 4 5 8 9 11 14 15 16 16 16 15 17 19 19 20 21 22 21 19 18
17 15 13 17 22 28 30 31 32 33 31 29 27 25 22 18 15 12 10 7 5 3 4 5 8 11 13 14 16 17 16 16 19 20 20 20 20 21 24 25 23 21 20
13 14 14 18 21 23 27 30 32 32 30 28 26 24 20 16 13 10 8 6 4 4 5 7 10 13 14 16 17 15 16 19 22 22 22 21 23 24 27 27 24 24 26
14 13 13 12 17 21 25 29 30 30 28 27 25 21 18 14 11 9 7 5 4 4 6 9 12 14 15 17 16 16 19 21 21 22 23 24 25 27 28 28 27 26 24
15 14 12 11 16 20 24 28 29 29 28 25 22 19 16 12 10 8 5 4 4 6 9 10 12 13 15 16 16 18 20 21 22 22 22 23 23 26 28 25 26 23 28
14 13 13 11 15 19 23 27 29 29 27 24 21 17 14 11 9 6 4 4 5 8 9 11 12 14 16 18 18 19 21 22 21 21 23 25 22 24 25 28 30 32 28
14 13 13 13 14 21 23 27 30 29 26 23 19 16 13 10 7 5 3 4 6 8 10 11 14 17 18 18 18 19 22 21 23 26 27 26 23 23 28 30 31 32 34
15 15 15 14 19 22 28 29 32 29 25 22 18 15 12 10 6 4 3 4 6 10 12 14 16 17 18 17 18 19 21 22 24 26 28 28 24 28 31 32 34 35 24
13 12 11 16 21 26 28 32 31 28 24 20 17 14 11 8 5 3 3 5 8 12 13 15 16 18 19 18 19 20 22 24 25 27 27 27 29 29 32 35 25 31 28
11 12 20 22 27 29 32 33 29 26 23 19 16 12 9 7 4 2 4 7 10 12 13 15 18 18 19 19 19 21 24 26 26 25 23 22 25 30 34 32 30 28 29
16 20 24 26 28 28 34 32 28 25 21 18 14 10 7 6 3 4 5 8 10 13 14 17 16 18 18 19 19 20 24 23 24 21 22 20 29 33 31 34 29 24 31
19 25 23 23 26 31 33 28 26 21 18 16 12 10 7 4 4 4 6 9 11 14 16 17 18 17 19 21 19 20 23 25 24 24 23 26 29 32 34 32 25 28 33
17 21 23 22 26 31 32 26 23 19 17 15 12 9 6 4 3 6 8 10 13 15 16 18 21 20 22 20 19 21 23 26 27 23 27 28 32 33 31 27 26 30 29
18 20 25 25 26 27 28 26 21 19 16 13 11 8 5 3 5 8 11 14 14 15 17 19 18 21 22 20 21 21 23 26 25 25 30 30 30 28 26 25 27 26 24
18 23 25 22 22 21 22 24 20 16 14 12 9 6 4 4 6 7 10 12 14 16 19 17 17 22 21 21 23 21 26 21 23 25 23 26 24 23 24 25 24 23 23
18 21 22 21 22 23 22 19 16 14 13 10 7 4 4 6 8 9 10 12 13 14 17 19 20 20 18 20 25 26 26 27 27 29 22 22 22 23 23 24 24 25 25
20 21 23 26 24 23 20 16 13 11 10 8 5 5 6 8 9 11 14 13 10 14 14 16 17 20 20 23 25 26 27 28 25 21 19 20 21 21 23 24 26 26 27
Wind_Direction
267 234 206 204 201 193 186 178 170 175 175 164 153 145 141 141 135 131 130 131 133 126 115 96 72 46 29 27 20 17 9 9 2 348 338 332 316 278 293 337 336 334 335
204 197 198 194 190 186 187 184 180 173 174 169 157 151 144 140 136 130 125 123 126 116 102 81 63 49 41 34 28 28 21 14 16 4 328 348 327 354 302 311 329 316 331
200 202 187 194 186 185 183 181 180 177 174 164 155 143 136 132 129 130 124 117 117 106 92 75 58 48 41 42 35 31 28 16 13 20 34 346 303 324 301 287 283 316 315
198 188 172 177 186 181 174 174 172 172 167 163 158 156 150 142 144 138 128 122 113 101 87 72 58 55 52 45 37 27 23 18 12 5 348 321 291 305 316 286 304 301 312
185 179 177 180 179 169 166 166 166 164 164 165 164 161 150 147 144 138 133 125 114 101 84 71 67 59 49 39 26 19 13 7 360 354 335 315 303 274 268 300 306 310 312
190 166 137 156 161 163 162 164 163 161 164 167 165 163 155 149 145 144 136 128 117 101 86 73 62 51 37 23 15 8 359 353 346 340 337 328 311 312 303 296 305 297 309
165 154 150 157 155 158 163 166 164 157 162 163 162 161 157 156 154 152 146 139 129 109 89 71 55 38 24 10 1 354 350 345 342 338 331 328 328 326 317 307 304 301 306
172 168 162 161 157 154 158 164 162 153 156 156 154 156 155 153 152 150 145 136 128 107 87 61 38 22 7 360 353 347 345 339 334 330 326 324 324 327 323 304 305 309 297
174 167 155 154 152 152 157 161 158 152 153 152 151 151 152 152 148 144 138 131 122 104 93 53 23 7 2 355 349 345 341 332 329 326 316 318 323 327 327 319 302 288 307
164 160 156 145 145 149 158 160 159 155 153 152 152 149 148 146 144 139 133 129 117 106 76 33 11 3 357 351 346 340 336 328 325 322 312 313 315 322 325 320 308 290 281
160 153 144 138 136 144 152 156 155 152 151 151 149 145 144 144 141 136 127 119 109 80 38 16 4 358 351 347 342 337 334 327 323 320 312 306 312 314 320 323 312 291 280
149 141 137 135 140 139 148 151 153 153 152 150 148 145 144 143 138 131 122 113 94 55 27 8 360 353 347 340 338 334 329 324 322 320 313 305 312 308 317 317 301 289 286
133 133 133 143 140 140 148 153 156 152 152 150 148 145 143 143 137 129 120 102 72 42 17 3 356 348 340 336 336 333 327 323 321 321 317 312 308 308 313 310 299 292 291
145 143 139 140 137 144 148 153 155 155 153 152 150 146 146 144 136 128 113 87 50 23 8 358 349 343 339 340 339 331 327 324 322 324 324 321 319 314 313 309 305 308 303
151 150 147 144 141 141 148 155 158 157 157 153 151 148 146 143 136 125 103 68 33 14 359 348 346 345 345 344 333 329 327 329 329 330 328 325 318 314 313 312 315 308 304
152 153 149 146 150 151 151 154 160 160 160 156 153 151 149 144 136 119 91 46 17 0 353 353 348 345 342 338 331 329 328 328 330 330 329 328 320 314 313 313 309 306 302
160 159 160 158 156 154 154 156 163 161 162 157 155 153 149 144 131 113 62 20 359 354 354 351 346 339 337 334 329 325 324 326 328 329 327 322 312 313 314 305 304 300 316
156 152 146 140 142 150 157 162 162 162 160 157 153 153 149 141 129 90 36 2 355 352 347 343 341 335 335 331 325 323 323 324 326 323 319 314 312 315 313 310 322 322 316
148 143 144 142 145 152 161 159 161 160 157 156 154 151 148 134 119 86 21 4 348 343 340 340 337 335 333 334 327 326 326 323 318 317 314 314 313 315 316 324 321 318 313
129 129 131 136 142 152 160 154 156 158 156 156 151 146 138 135 105 38 14 352 340 337 336 334 338 335 334 340 331 329 325 317 316 317 317 318 320 319 323 324 323 320 310
118 123 128 134 142 152 155 145 153 154 153 150 144 140 131 106 61 28 353 345 341 336 338 336 337 339 342 340 332 330 326 320 321 324 324 321 321 323 324 322 324 310 318
108 116 115 117 137 151 152 143 146 147 147 146 138 128 114 95 46 358 354 349 342 339 337 336 334 340 343 342 331 328 325 324 325 323 322 318 323 323 322 322 320 322 324
104 111 116 115 137 147 149 142 143 146 143 136 127 119 109 70 14 1 353 348 345 339 335 335 330 329 333 335 330 325 323 324 322 323 319 322 322 323 321 323 323 323 319
106 114 114 113 122 138 144 140 141 143 139 129 122 113 85 29 8 360 352 344 339 334 334 332 324 328 327 329 327 325 324 323 325 324 326 324 323 322 320 321 321 319 319
102 113 116 115 123 131 130 134 137 139 129 125 116 90 36 8 356 347 344 338 334 329 328 326 326 325 322 322 326 327 327 331 330 328 328 324 325 323 322 321 320 322 322
114 111 118 123 129 127 123 125 129 135 130 117 93 48 13 355 343 335 330 339 332 330 329 326 325 322 319 323 327 327 331 329 330 331 324 321 320 318 318 319 319 319 320